Tracking 35274 objects as of 10-Sep-2026
HD Live streaming from Space Station
objects crossing your sky now

KUIPER-00251

Track KUIPER-00251 now!
10-day predictions
KUIPER-00251 is classified as:


NORAD ID: 67156
Int'l Code: 2025-301Z
Launch date: December 15, 2025
Source: United States (US)
Launch site: AIR FORCE EASTERN TEST RANGE (AFETR)
Your satellite tracking list
Your tracking list is empty




NASA's NSSDC Master Catalog

Two Line Element Set (TLE):
1 67156U 25301Z   26252.51707520 -.00000403  00000-0 -23862-4 0  9994
2 67156  51.9023 325.2814 0000391  77.5696 282.5310 14.79929332 41246
Source of the keplerian elements: AFSPC